Regional Weather Roundup
Issued by NWS Goodland, KS

Home | Current Version | Previous Version | Graphics & Text | Print | Product List | Glossary On
Versions: 1 2 3 4 5 6 7 8 9 10 11 12 13 14 15 16 17 18 19 20 21 22 23 24 25 26 27 28 29 30 31 32 33 34 35 36 37 38 39 40 41 42 43 44 45 46 47 48 49 50
000
ASUS43 KGLD 031859
RWRGLD

GOODLAND FORECAST AREA HOURLY WEATHER ROUNDUP
NATIONAL WEATHER SERVICE GOODLAND KS
1200 PM MST SAT DEC 03 2016

...OFFICIAL OBSERVATIONS...

CITY           SKY/WX    TMP DP  RH WIND       PRES   REMARKS
GOODLAND KS    CLOUDY    36  25  64 S12       30.04F
HILL CITY KS   LGT SNOW  34  33  96 SE3       30.14F FOG
IMPERIAL NEB   SUNNY     44  18  35 S12G22    30.02
MCCOOK NEB     CLOUDY    38  29  70 S15       30.09
AKRON CO       SUNNY     36  20  52 NW8       29.98F
BURLINGTON CO  PTSUNNY   41  25  53 S14       30.01F
LIMON CO       SUNNY     41  17  38 CALM      29.96F
$$

...UNOFFICIAL OBSERVATIONS...

CITY           SKY/WX    TMP DP  RH WIND       PRES   REMARKS
COLBY KS       CLOUDY    36  34  93 S10       30.08F
LENORA KS        N/A     33  32  96 MISG        N/A
NORTON KS      RAIN      34  28  80 CALM      30.12S
SHARON SPRINGS   N/A     37  30  75 SE10        N/A
TRENTON NEB      N/A     41  32  70 SW10        N/A
KIT CARSON CO    N/A     39  26  58 MISG        N/A
YUMA CO        FAIR      39  21  48 SW5       29.99F
$$




USA.gov is the U.S. government's official web portal to all federal, state and local government web resources and services.